User: anonymous   Login
Location: Fort Worth, Tx
(32.7431°N, 97.3695°W)
Time: 11:28:52
(UTC-04:00)
Language:

Max Valier Satellite - Orbit

View from above orbital plane
View from above orbital plane
View from above satellite
View from above satellite

Ground track
Ground track

The orbit data is extracted from the following two-line orbital elements,

1 42778U 17036P   23270.66898352  .00034643  00000-0  74863-3 0  9997
2 42778  97.1439 303.4043 0009332  92.7577 267.4740 15.44387006348513
Epoch (UTC): 27 September 2023 16:03:20
Eccentricity: 0.0009332
inclination: 97.1439°
perigee height: 427 km
apogee height: 439 km
right ascension of ascending node: 303.4043°
argument of perigee: 92.7577°
revolutions per day: 15.44387006
mean anomaly at epoch: 267.4740°
orbit number at epoch: 34851

The dashed part of the orbit path shows where the satellite is in the earth's shadow,  

DLR